KD9DD-13 Weather Reports


Display with metric or nautical units.
time (UTC)temp
F
wind
direction
speed
MPH
gust
MPH
rain 1hr
in
rain 24hr
in
rain mn
in
humidity
%
barometer
mb
20260510225111 70 0.0 0.0 0.00 0.14 0.01 35 1018.3
20260510224037 71 0.0 0.0 0.00 0.14 0.01 36 1018.4
20260510223021 71 164 0.0 3.0 0.00 0.14 0.01 35 1018.5
20260510222025 71 0.0 0.0 0.00 0.14 0.01 36 1018.5
20260510221050 70 193 1.0 5.0 0.00 0.14 0.01 34 1018.5
20260510220016 72 248 0.0 2.0 0.00 0.14 0.01 35 1018.6
20260510215040 72 0.0 0.0 0.00 0.14 0.01 35 1018.6
20260510214104 72 135 0.0 1.0 0.00 0.14 0.01 34 1018.6
20260510213029 73 183 1.0 4.0 0.00 0.14 0.01 35 1018.7
20260510212027 73 98 1.0 3.0 0.00 0.14 0.01 33 1018.5
20260510211018 75 177 3.0 6.0 0.00 0.14 0.01 31 1018.3
20260510210043 74 166 1.0 4.0 0.00 0.14 0.01 34 1018.4
20260510205021 73 187 2.0 5.0 0.00 0.14 0.01 35 1018.2
20260510204019 74 165 3.0 5.0 0.00 0.14 0.01 34 1018.1
20260510203018 74 183 4.0 5.0 0.00 0.14 0.01 33 1018.1
20260510202015 74 158 4.0 4.0 0.00 0.14 0.01 34 1018.3
20260510201026 74 155 3.0 6.0 0.00 0.14 0.01 33 1018.3
20260510200030 74 217 2.0 5.0 0.00 0.14 0.01 34 1018.5
20260510195016 73 168 3.0 5.0 0.00 0.14 0.01 35 1018.6
20260510194020 73 141 4.0 7.0 0.00 0.14 0.01 36 1018.6
20260510193025 73 149 2.0 5.0 0.00 0.14 0.01 35 1018.5
20260510192049 72 106 2.0 6.0 0.00 0.14 0.01 37 1018.5
20260510191035 71 108 3.0 5.0 0.00 0.14 0.01 37 1018.3
20260510190019 72 154 3.0 5.0 0.00 0.14 0.01 36 1018.3
20260510185023 72 160 3.0 6.0 0.00 0.14 0.01 36 1018.2
20260510184028 74 215 2.0 4.0 0.00 0.14 0.01 37 1018.0
20260510183032 72 165 4.0 6.0 0.00 0.14 0.01 36 1018.0
20260510182038 73 171 4.0 7.0 0.00 0.14 0.01 36 1018.1
20260510181022 72 188 2.0 5.0 0.00 0.14 0.01 35 1018.2
20260510180026 72 124 0.0 2.0 0.00 0.14 0.01 36 1018.4
20260510175030 72 154 4.0 6.0 0.00 0.14 0.01 36 1018.5
20260510174017 72 153 2.0 5.0 0.00 0.14 0.01 38 1018.5
20260510173020 70 221 0.0 2.0 0.00 0.14 0.01 37 1018.6
20260510172025 71 198 2.0 5.0 0.00 0.14 0.01 38 1018.7
20260510171029 70 182 1.0 5.0 0.00 0.14 0.01 38 1018.7
20260510170015 72 31 2.0 5.0 0.00 0.14 0.01 38 1018.9
20260510165019 71 200 1.0 5.0 0.01 0.14 0.01 38 1018.8
20260510164044 71 252 0.0 2.0 0.01 0.14 0.01 38 1018.8
20260510163028 71 181 2.0 6.0 0.01 0.14 0.01 39 1018.8
20260510162032 70 179 3.0 4.0 0.01 0.14 0.01 42 1018.9
20260510161018 70 175 3.0 6.0 0.01 0.14 0.01 43 1018.9
20260510160022 69 155 2.0 5.0 0.01 0.15 0.01 48 1018.8
20260510155026 67 153 3.0 5.0 0.00 0.14 0.00 52 1018.5
20260510154025 66 171 1.0 4.0 0.00 0.14 0.00 53 1018.4
20260510153017 65 135 0.0 3.0 0.00 0.14 0.00 57 1018.3
20260510152021 64 180 1.0 4.0 0.00 0.14 0.00 60 1018.3
20260510151039 64 158 0.0 1.0 0.00 0.14 0.00 61 1018.1
20260510150017 63 134 1.0 5.0 0.00 0.14 0.00 65 1017.9
20260510145016 62 184 2.0 5.0 0.00 0.14 0.00 66 1017.8
20260510144020 61 0.0 0.0 0.00 0.14 0.00 68 1017.7
20260510143045 60 0.0 1.0 0.00 0.14 0.00 69 1017.6
20260510142028 59 0.0 0.0 0.00 0.14 0.00 71 1017.6
20260510141015 59 0.0 0.0 0.00 0.14 0.00 72 1017.8
20260510140059 59 158 0.0 1.0 0.00 0.14 0.00 71 1017.6
20260510135023 59 124 0.0 1.0 0.00 0.14 0.00 71 1017.5
20260510134048 59 0.0 0.0 0.00 0.14 0.00 70 1017.4
20260510133031 58 203 0.0 1.0 0.00 0.14 0.00 73 1017.3
20260510132018 58 0.0 0.0 0.00 0.14 0.00 74 1017.1
20260510131022 57 0.0 0.0 0.00 0.14 0.00 78 1017.1
20260510130026 56 180 0.0 3.0 0.00 0.14 0.00 78 1016.9
20260510125110 56 135 0.0 3.0 0.00 0.14 0.00 79 1016.9
20260510124017 56 0.0 0.0 0.00 0.14 0.00 79 1016.7
20260510123021 54 90 0.0 2.0 0.00 0.14 0.00 83 1016.5
20260510122025 54 0.0 0.0 0.00 0.14 0.00 84 1016.3
20260510121029 54 0.0 0.0 0.00 0.14 0.00 86 1015.9
20260510120016 53 0.0 0.0 0.00 0.14 0.00 88 1015.6
20260510115100 53 0.0 0.0 0.00 0.14 0.00 90 1015.4
20260510114024 52 0.0 0.0 0.00 0.14 0.00 90 1015.3
20260510113028 52 0.0 0.0 0.00 0.14 0.00 91 1015.1
20260510112052 52 0.0 0.0 0.00 0.14 0.00 91 1014.9
20260510111018 52 0.0 0.0 0.00 0.14 0.00 92 1014.6
20260510110022 53 0.0 0.0 0.00 0.14 0.00 92 1014.4
20260510105047 53 0.0 0.0 0.00 0.14 0.00 93 1014.4
20260510104031 53 0.0 0.0 0.00 0.14 0.00 94 1014.3
20260510103017 53 0.0 0.0 0.00 0.14 0.00 94 1014.2
20260510102021 53 0.0 0.0 0.00 0.14 0.00 95 1014.2
20260510101026 53 0.0 0.0 0.00 0.14 0.00 95 1014.2
20260510100024 53 0.0 0.0 0.00 0.14 0.00 95 1013.9
20260510095016 53 0.0 0.0 0.00 0.14 0.00 94 1013.6
20260510094020 53 0.0 0.0 0.00 0.14 0.00 94 1013.5
20260510093018 53 0.0 0.0 0.00 0.14 0.00 94 1013.4
20260510092017 54 0.0 0.0 0.00 0.14 0.00 94 1013.0
20260510091033 54 0.0 0.0 0.00 0.14 0.00 94 1012.7
20260510090019 54 0.0 0.0 0.00 0.14 0.00 94 1012.6
20260510085023 54 0.0 0.0 0.00 0.14 0.00 94 1012.4
20260510084027 55 0.0 0.0 0.00 0.14 0.00 94 1012.3
20260510083032 55 0.0 0.0 0.00 0.14 0.00 94 1012.2
20260510082018 56 0.0 0.0 0.00 0.14 0.00 94 1011.9
20260510081022 56 0.0 0.0 0.00 0.14 0.00 94 1011.4
20260510080026 57 0.0 0.0 0.00 0.14 0.00 94 1011.7
20260510075030 57 0.0 0.0 0.00 0.14 0.00 94 1011.7
20260510074016 57 0.0 0.0 0.00 0.14 0.00 94 1011.7
20260510073021 57 0.0 0.0 0.00 0.14 0.00 94 1011.7
20260510072045 58 0.0 0.0 0.00 0.14 0.00 94 1011.9
20260510071029 58 0.0 0.0 0.00 0.14 0.00 94 1011.7
20260510070015 58 0.0 0.0 0.00 0.14 0.00 93 1011.8
20260510065020 58 0.0 0.0 0.00 0.14 0.00 93 1011.6
20260510064024 58 0.0 0.0 0.00 0.14 0.00 93 1011.6
20260510063028 58 0.0 0.0 0.00 0.14 0.00 93 1011.6
20260510062032 58 0.0 0.0 0.00 0.14 0.00 93 1011.5
20260510061018 58 0.0 0.0 0.00 0.14 0.00 93 1011.7
20260510060022 58 0.0 0.0 0.00 0.14 0.00 92 1011.7
20260510055107 59 0.0 0.0 0.00 0.14 0.00 92 1011.6
20260510054031 59 0.0 0.0 0.01 0.14 0.00 92 1011.6
20260510053017 59 113 0.0 1.0 0.03 0.14 0.00 91 1011.5
20260510052021 59 263 0.0 3.0 0.07 0.14 0.00 92 1011.5
20260510051025 60 0.0 0.0 0.11 0.14 0.00 93 1011.4
20260510050029 60 225 0.0 2.0 0.12 0.14 0.00 93 1011.5
20260510045016 60 0.0 0.0 0.12 0.14 0.14 92 1011.9
20260510044040 60 0.0 0.0 0.12 0.13 0.13 92 1012.3
20260510043044 60 151 0.0 2.0 0.10 0.11 0.11 91 1012.7
20260510042042 61 133 3.0 8.0 0.06 0.07 0.07 90 1012.8
20260510041041 61 150 4.0 6.0 0.02 0.03 0.03 88 1012.4
20260510040039 62 134 4.0 7.0 0.01 0.03 0.02 87 1012.0
20260510035017 63 156 5.0 8.0 0.01 0.04 0.02 85 1011.3
20260510034015 65 118 6.0 8.0 0.00 0.05 0.01 81 1010.4
20260510033051 65 0.0 0.0 0.00 0.07 0.01 81 1009.3
20260510032018 65 0.0 0.0 0.00 0.08 0.01 79 1008.9
20260510031022 64 0.0 0.0 0.00 0.10 0.01 79 1008.8
20260510030026 64 0.0 0.0 0.00 0.13 0.01 79 1008.8
20260510025030 64 0.0 0.0 0.00 0.17 0.01 78 1008.7
20260510024036 64 0.0 0.0 0.00 0.23 0.01 76 1008.6
20260510023021 64 0.0 0.0 0.00 0.27 0.01 73 1008.5
20260510022025 65 0.0 0.0 0.00 0.33 0.01 72 1008.5
20260510021029 65 0.0 0.0 0.00 0.35 0.01 70 1008.3
20260510020015 66 0.0 0.0 0.00 0.36 0.01 69 1008.0
20260510015019 67 0.0 0.0 0.00 0.37 0.01 66 1007.9
20260510014044 68 0.0 0.0 0.00 0.37 0.01 65 1007.8
20260510013028 69 0.0 0.0 0.00 0.37 0.01 65 1007.8
20260510012032 69 0.0 0.0 0.00 0.37 0.01 63 1007.8
20260510011018 71 0.0 0.0 0.00 0.38 0.01 59 1007.5
20260510010022 72 0.0 0.0 0.00 0.38 0.01 58 1007.5
20260510005026 73 0.0 0.0 0.00 0.38 0.01 54 1007.4
20260510004030 74 0.0 0.0 0.00 0.39 0.01 54 1007.3
20260510003037 76 0.0 0.0 0.00 0.40 0.01 50 1007.3
20260510002021 76 0.0 0.0 0.00 0.40 0.01 48 1007.3
20260510001046 76 0.0 0.0 0.00 0.40 0.01 49 1007.1
20260510000029 77 0.0 0.0 0.00 0.40 0.01 46 1007.1
20260509235016 78 0.0 0.0 0.00 0.40 0.01 45 1007.0
20260509234040 78 0.0 0.0 0.00 0.40 0.01 43 1007.0
20260509233024 79 23 0.0 2.0 0.00 0.40 0.01 43 1007.0
20260509232028 79 357 1.0 3.0 0.00 0.40 0.01 42 1007.0
20260509231026 79 82 1.0 3.0 0.00 0.40 0.01 41 1007.0
20260509230039 80 315 1.0 3.0 0.00 0.40 0.01 39 1006.8